Weather Data

Pearl Creek Farm: 8878 N Farm Road 75, Walnut Grove MO 65770

<== Previous Day (Thursday 24 Mar 2011) | Next Day (Saturday 26 Mar 2011) ==>

Summary Precipitation Data For Friday 25 March 2011

ElementValueUnits
Precipitation0.1"
Notes(none)
SourcePearl Creek Farm

Summary Temperature Data For Friday 25 March 2011

ElementValueUnits
High Temperature52 oF
Low Temperature36 oF
Average Temperature43 oF
High Humidity86 %
Low Humidity67 %
Average Humidity76 %
SourcePearl Creek Farm

Detail Temperature Data For Friday 25 March 2011

Date / TimeTemp (F)RH (%)Dew Pt (F)Report Date / TimeSource
2011-03-25 00:00:00 41 70 32.0 2011-05-13 22:19:16 Pearl Creek Farm
2011-03-25 00:30:00 40 70 30.9 2011-05-13 22:19:16 Pearl Creek Farm
2011-03-25 01:00:00 41 69 31.6 2011-05-13 22:19:16 Pearl Creek Farm
2011-03-25 01:30:00 41 69 31.6 2011-05-13 22:19:16 Pearl Creek Farm
2011-03-25 02:00:00 41 69 31.6 2011-05-13 22:19:16 Pearl Creek Farm
2011-03-25 02:30:00 41 69 31.6 2011-05-13 22:19:16 Pearl Creek Farm
2011-03-25 03:00:00 41 69 31.6 2011-05-13 22:19:16 Pearl Creek Farm
2011-03-25 03:30:00 40 70 30.9 2011-05-13 22:19:16 Pearl Creek Farm
2011-03-25 04:00:00 41 69 31.6 2011-05-13 22:19:16 Pearl Creek Farm
2011-03-25 04:30:00 40 71 31.4 2011-05-13 22:19:16 Pearl Creek Farm
2011-03-25 05:00:00 39 77 32.4 2011-05-13 22:19:16 Pearl Creek Farm
2011-03-25 05:30:00 38 79 32.1 2011-05-13 22:19:16 Pearl Creek Farm
2011-03-25 06:00:00 37 81 31.6 2011-05-13 22:19:16 Pearl Creek Farm
2011-03-25 06:30:00 36 83 31.4 2011-05-13 22:19:16 Pearl Creek Farm
2011-03-25 07:00:00 37 84 32.5 2011-05-13 22:19:16 Pearl Creek Farm
2011-03-25 07:30:00 37 84 32.5 2011-05-13 22:19:16 Pearl Creek Farm
2011-03-25 08:00:00 37 84 32.5 2011-05-13 22:19:16 Pearl Creek Farm
2011-03-25 08:30:00 37 84 32.6 2011-05-13 22:19:16 Pearl Creek Farm
2011-03-25 09:00:00 36 85 31.8 2011-05-13 22:19:16 Pearl Creek Farm
2011-03-25 09:30:00 37 85 32.9 2011-05-13 22:19:16 Pearl Creek Farm
2011-03-25 10:00:00 37 86 33.2 2011-05-13 22:19:16 Pearl Creek Farm
2011-03-25 10:30:00 38 86 34.2 2011-05-13 22:19:16 Pearl Creek Farm
2011-03-25 11:00:00 38 85 33.9 2011-05-13 22:19:16 Pearl Creek Farm
2011-03-25 11:30:00 39 86 35.0 2011-05-13 22:19:16 Pearl Creek Farm
2011-03-25 12:00:00 40 85 35.7 2011-05-13 22:19:16 Pearl Creek Farm
2011-03-25 12:30:00 42 84 37.4 2011-05-13 22:19:16 Pearl Creek Farm
2011-03-25 13:00:00 44 82 38.9 2011-05-13 22:19:16 Pearl Creek Farm
2011-03-25 13:30:00 46 80 40.0 2011-05-13 22:19:16 Pearl Creek Farm
2011-03-25 14:00:00 48 77 41.0 2011-05-13 22:19:16 Pearl Creek Farm
2011-03-25 14:30:00 48 74 40.1 2011-05-13 22:19:16 Pearl Creek Farm
2011-03-25 15:00:00 49 73 40.7 2011-05-13 22:19:16 Pearl Creek Farm
2011-03-25 15:30:00 51 73 42.5 2011-05-13 22:19:16 Pearl Creek Farm
2011-03-25 16:00:00 51 70 41.6 2011-05-13 22:19:16 Pearl Creek Farm
2011-03-25 16:30:00 52 70 42.4 2011-05-13 22:19:16 Pearl Creek Farm
2011-03-25 17:00:00 52 68 41.8 2011-05-13 22:19:16 Pearl Creek Farm
2011-03-25 17:30:00 52 67 41.4 2011-05-13 22:19:16 Pearl Creek Farm
2011-03-25 18:00:00 52 69 42.0 2011-05-13 22:19:16 Pearl Creek Farm
2011-03-25 18:30:00 52 69 42.0 2011-05-13 22:19:16 Pearl Creek Farm
2011-03-25 19:00:00 51 69 41.2 2011-05-13 22:19:16 Pearl Creek Farm
2011-03-25 19:30:00 50 70 40.4 2011-05-13 22:19:16 Pearl Creek Farm
2011-03-25 20:00:00 49 71 39.8 2011-05-13 22:19:16 Pearl Creek Farm
2011-03-25 20:30:00 49 73 40.6 2011-05-13 22:19:16 Pearl Creek Farm
2011-03-25 21:00:00 48 74 40.0 2011-05-13 22:19:16 Pearl Creek Farm
2011-03-25 21:30:00 46 75 38.5 2011-05-13 22:19:16 Pearl Creek Farm
2011-03-25 22:00:00 46 76 38.9 2011-05-13 22:19:16 Pearl Creek Farm
2011-03-25 22:30:00 45 76 37.7 2011-05-13 22:19:16 Pearl Creek Farm
2011-03-25 23:00:00 45 77 38.1 2011-05-13 22:19:16 Pearl Creek Farm
2011-03-25 23:30:00 44 78 37.4 2011-05-13 22:19:16 Pearl Creek Farm

A total of 48 rows are displayed.